Capitol Logistics 8038

Operating for GTI



KBWI
Baltimore/Washington International Thurgood Marshall Airport
Baltimore, Maryland
ETAR
Ramstein Air Force Base
Ramstein,

Activity Log

Date Flight Route Aircraft Duration
No Flights Yet

Route Details

Aircraft Information
Primary: Boeing 767-300BDSF
Backup: Airbus A300-600F
Route Data
Distance: 3485nm
Duration: 7h 25m
Recm'd Route: SWANN3 OOD J42 RBV LLUND BAYYS PUT J42 BOS ALLEX N379A ALLRY NATZ GISTI MORAG Q60 LANON L18 DIKAS UL9 KONAN UL607 SPI T180 PESOV T180 TOBOP T180 NIVNU T847 EMGOD T847 SIPVU T847 OLIVI Q762 XIDOD
Origin Wx: KBWI 020554Z 29005KT 10SM CLR 18/16 A2990 RMK AO2 SLP125 60054 T01780161 10233 20178 51002
Dest. Wx: ETAR 020556Z AUTO 00000KT 9999 BKN090 14/14 A2995 RMK AO2 SLP141 T01370137 10137 20110 51005
Notes: USTRANSCOM CONTRACT FLIGHT | 1X PER WEEK | PAYLOAD LIMITED | ETOPS